User: anonymous   Login
Location: Fort Wayne
(41.1310°N, 85.1290°W)
Time: 12:35:44
(UTC-04:00)
Language:

OPAL - Orbit

View from above orbital plane
View from above orbital plane
View from above satellite
View from above satellite

Ground track
Ground track

The orbit data is extracted from the following two-line orbital elements,

1 26063U 00004C   15091.52958066  .00000216  00000-0  93115-4 0  9990
2 26063 100.2265 296.0130 0037177 066.2723 294.2350 14.36516111795428
Epoch (UTC): 01 April 2015 12:42:35
Eccentricity: 0.0037177
inclination: 100.2265°
perigee height: 743 km
apogee height: 796 km
right ascension of ascending node: 296.0130°
argument of perigee: 66.2723°
revolutions per day: 14.36516111
mean anomaly at epoch: 294.2350°
orbit number at epoch: 79542

The dashed part of the orbit path shows where the satellite is in the earth's shadow,  

DLR